Location: Gad�tanya
(48.0500°N, 20.8500°E)
Time: 11:50:42
(UTC+00:00)

NOSS 3-3 (C) - Pass Details

Date: 05 July 2020
Orbit: 823 x 1389 km, 63.4° (Epoch: 11 August)

Event Time Altitude Azimuth Distance (km) Brightness Sun altitude
Rises 20:27:22 0° 210° (SSW) 3,402 6.6 -13.2°
Reaches altitude 10° 20:29:43 10° 208° (SSW) 2,510 5.9 -13.4°
Maximum altitude 20:35:29 71° 125° (SE) 992 3.9 -13.8°
Drops below altitude 10° 20:42:02 10° 44° (NE) 2,846 6.7 -14.4°
Sets 20:44:51 0° 42° (NE) 3,892 7.4 -14.6°
